Location: Sternwarte ZA, Rosenfeld-Brittheim
(48.2889°N, 8.6789°E)
Time: 23:28:33
(UTC+02:00)

ISS - Pass Details

Date: 21 July 2018
Orbit: 402 x 408 km, 51.6° (Epoch: 16 July)

Event Time Altitude Azimuth Distance (km) Brightness Sun altitude
Rises 22:52:15 0° 239° (WSW) 2,314 0.1 -12.7°
Reaches altitude 10° 22:54:19 10° 237° (WSW) 1,458 -1.0 -12.9°
Maximum altitude 22:57:34 68° 153° (SSE) 439 -3.9 -13.2°
Drops below altitude 10° 23:00:50 10° 70° (ENE) 1,467 -1.2 -13.5°
Sets 23:02:56 0° 68° (ENE) 2,330 -0.1 -13.7°
